Change the Weather History Date:

Sunday, October 20, 2013

  Actual Average Record
Temperature  
Mean Temperature 64 °F -  
Max Temperature 75 °F 76 °F 93 °F (2010)
Min Temperature 52 °F 55 °F 42 °F (2005)
Degree Days  
Heating Degree Days 2    
Growing Degree Days 14 (Base 50)    
Moisture  
Dew Point 36 °F    
Average Humidity 39    
Maximum Humidity 72    
Minimum Humidity 11    
Precipitation  
Precipitation 0.00 in - - ()
Sea Level Pressure  
Sea Level Pressure 30.19 in    
Wind  
Wind Speed 11 mph ()    
Max Wind Speed 21 mph    
Max Gust Speed -    
Visibility 6.2 miles    
Events      
Averages and records for this station are not official NWS values.
T = Trace of Precipitation, MM = Missing Value Source: Averaged Metar Reports

Daily Weather History Graph

Daily Weather History Graph

Search for Another Location

Airport or City:

Trip Planner

Search our weather history database for the weather conditions in past years. The results will help you decide how hot, cold, wet, or windy it might be!

Date:

Astronomy

Oct. 20, 2013 Rise Set
Actual Time 6:50 AM EEST 5:55 PM EEST
Civil Twilight 6:24 AM EEST 6:21 PM EEST
Nautical Twilight 5:53 AM EEST 6:51 PM EEST
Astronomical Twilight 5:23 AM EEST 7:21 PM EEST
Moon 6:51 PM EEST (10/20) 8:05 AM EEST (10/20)
Length of Visible Light 11h 57m
Length of Day
11h 04m
Full, 98% of the Moon is Illuminated
Oct 20
Full
Oct 27
Last Quarter
Nov 3
New
Nov 10
First Quarter
Nov 17
Full

Hourly Weather History & Observations

Time (EEST) Temp. Dew Point Humidity Pressure Visibility Wind Dir Wind Speed Gust Speed Precip Events Conditions
12:20 AM 55.4 °F 44.6 °F 67% 30.12 in 6.2 mi NNE 8.1 mph - N/A   Partly Cloudy
12:50 AM 53.6 °F 44.6 °F 72% 30.12 in 6.2 mi NE 8.1 mph - N/A   Partly Cloudy
1:20 AM 55.4 °F 42.8 °F 63% 30.12 in 6.2 mi NE 10.4 mph - N/A   Partly Cloudy
1:50 AM 57.2 °F 42.8 °F 59% 30.12 in 6.2 mi NNE 10.4 mph - N/A   Partly Cloudy
2:20 AM 57.2 °F 42.8 °F 59% 30.15 in 6.2 mi NNE 13.8 mph - N/A   Partly Cloudy
2:50 AM 55.4 °F 42.8 °F 63% 30.15 in 6.2 mi NNE 10.4 mph - N/A   Partly Cloudy
3:00 AM 56 °F 42 °F 50% 30.14 in 6 mi NNE 10.4 mph - -   Scattered Clouds
3:20 AM 55.4 °F 42.8 °F 63% 30.15 in 6.2 mi North 5.8 mph - N/A   Partly Cloudy
3:50 AM 57.2 °F 41.0 °F 55% 30.15 in 6.2 mi North 4.6 mph - N/A   Partly Cloudy
4:20 AM 53.6 °F 41.0 °F 62% 30.15 in 6.2 mi NNE 4.6 mph - N/A   Partly Cloudy
4:50 AM 55.4 °F 41.0 °F 58% 30.15 in 6.2 mi NNE 8.1 mph - N/A   Partly Cloudy
5:20 AM 53.6 °F 41.0 °F 62% 30.15 in 6.2 mi NNE 13.8 mph - N/A   Partly Cloudy
5:50 AM 59.0 °F 39.2 °F 48% 30.15 in 6.2 mi NE 13.8 mph - N/A   Partly Cloudy
6:20 AM 55.4 °F 41.0 °F 58% 30.18 in 6.2 mi NE 11.5 mph - N/A   Partly Cloudy
6:50 AM 57.2 °F 39.2 °F 51% 30.18 in 6.2 mi NNE 11.5 mph - N/A   Partly Cloudy
7:20 AM 57.2 °F 39.2 °F 51% 30.18 in 6.2 mi NNE 11.5 mph - N/A   Partly Cloudy
7:50 AM 60.8 °F 39.2 °F 45% 30.18 in 6.2 mi NE 11.5 mph - N/A   Partly Cloudy
8:20 AM 62.6 °F 39.2 °F 42% 30.21 in 6.2 mi NE 16.1 mph - N/A   Partly Cloudy
8:50 AM 64.4 °F 39.2 °F 40% 30.21 in 6.2 mi NNE 13.8 mph - N/A   Partly Cloudy
9:00 AM 64 °F 39 °F 28% 30.22 in 6 mi NNE 13.8 mph - -   Scattered Clouds
9:20 AM 66.2 °F 37.4 °F 35% 30.21 in - NE 19.6 mph - N/A   Clear
9:50 AM 68.0 °F 37.4 °F 33% 30.21 in - NE 19.6 mph - N/A   Clear
10:20 AM 69.8 °F 35.6 °F 28% 30.21 in - NE 19.6 mph - N/A   Clear
10:50 AM 69.8 °F 35.6 °F 28% 30.21 in - NNE 20.7 mph - N/A   Clear
11:20 AM 71.6 °F 35.6 °F 27% 30.21 in - NNE 20.7 mph - N/A   Clear
11:50 AM 73.4 °F 33.8 °F 23% 30.21 in - NE 19.6 mph - N/A   Clear
12:20 PM 73.4 °F 33.8 °F 23% 30.21 in - NE 19.6 mph - N/A   Clear
12:50 PM 73.4 °F 33.8 °F 23% 30.21 in - NE 18.4 mph - N/A   Clear
1:20 PM 73.4 °F 32.0 °F 22% 30.21 in - NE 13.8 mph - N/A   Clear
1:50 PM 75.2 °F 32.0 °F 21% 30.21 in - NE 16.1 mph - N/A   Clear
2:20 PM 75.2 °F 32.0 °F 21% 30.18 in - NNE 11.5 mph - N/A   Clear
2:50 PM 75.2 °F 32.0 °F 21% 30.18 in - NE 16.1 mph - N/A   Clear
3:00 PM 75 °F 32 °F 11% 30.19 in 6 mi NE 16.1 mph - -  
3:20 PM 73.4 °F 32.0 °F 22% 30.18 in - NE 16.1 mph - N/A   Clear
3:50 PM 73.4 °F 32.0 °F 22% 30.18 in - NE 18.4 mph - N/A   Clear
4:20 PM 73.4 °F 30.2 °F 20% 30.18 in - NE 19.6 mph - N/A   Clear
4:50 PM 71.6 °F 32.0 °F 23% 30.18 in - NNE 17.3 mph - N/A   Clear
5:20 PM 69.8 °F 33.8 °F 27% 30.18 in - NNE 15.0 mph - N/A   Clear
5:50 PM 66.2 °F 33.8 °F 30% 30.18 in - NNE 13.8 mph - N/A   Clear
6:20 PM 64.4 °F 33.8 °F 32% 30.21 in - NNE 13.8 mph - N/A   Clear
6:50 PM 64.4 °F 33.8 °F 32% 30.21 in - NNE 13.8 mph - N/A   Clear
7:20 PM 62.6 °F 35.6 °F 37% 30.21 in - NNE 13.8 mph - N/A   Clear
7:50 PM 60.8 °F 33.8 °F 36% 30.21 in - NNE 10.4 mph - N/A   Clear
8:20 PM 59.0 °F 35.6 °F 42% 30.21 in - NNE 11.5 mph - N/A   Clear
8:50 PM 60.8 °F 33.8 °F 36% 30.24 in - NNE 12.7 mph - N/A   Clear
9:00 PM 60 °F 34 °F 25% 30.25 in 6 mi NNE 12.7 mph - -  
9:20 PM 59.0 °F 33.8 °F 39% 30.24 in - NNE 11.5 mph - N/A   Clear
9:50 PM 60.8 °F 32.0 °F 34% 30.24 in - NNE 16.1 mph - N/A   Clear
10:20 PM 60.8 °F 32.0 °F 34% 30.24 in - NNE 15.0 mph - N/A   Clear
10:50 PM 59.0 °F 32.0 °F 36% 30.24 in - NNE 13.8 mph - N/A   Clear
11:20 PM 59.0 °F 32.0 °F 36% 30.24 in - NNE 11.5 mph - N/A   Clear
11:50 PM 59.0 °F 32.0 °F 36% 30.24 in - NNE 11.5 mph - N/A   Clear